[[{"header":{"parameterUnit":"m.s-1","parameterCategory":1,"la1":30.2991,"la2":30.254,"lo1":-89.0895,"lo2":-89.0444,"dy":0.0017,"dx":0.0017,"nx":28,"ny":28,"refTime":"2024-12-12T09:00:00:Z","depth":0,"parameterNumber":2,"parameterNumberName":"U-component_of_WINDS"},"data":[0,0,0,0,0,0,0,0,0,0,0,0,0,0,0,0,0,0,0,0,0,0,0,0,0,0,0,0,0,0,0,0,0,0,0,0,0,0,0,0,0,0,0,0,0,0,0,0,0,0,0,0,0,0,0,0,0,0,-4.2865,-4.2866,0,-4.2973,-4.2975,-4.2976,-4.2854,-4.2849,-4.2845,-4.284,-4.2956,-4.2963,-4.2971,0,0,0,0,0,0,0,0,0,0,0,0,0,-4.2554,-4.2561,-4.2864,-4.2866,-4.2867,-4.2973,-4.2975,-4.2976,-4.2855,-4.2849,-4.2843,-4.2838,-4.2954,-4.2962,-4.2971,0,0,0,0,0,0,0,0,0,0,0,0,0,-4.2679,-4.2563,-4.2864,-4.2819,-4.2816,-4.2973,-4.2975,-4.2977,-4.2856,-4.2849,-4.2842,-4.2835,-4.2951,-4.2961,-4.2972,-4.318,0,0,-4.3006,-4.3011,0,0,0,0,0,0,0,0,-4.2672,-4.269,-4.2825,-4.2823,-4.282,-4.2893,-4.2907,-4.3045,-4.2858,-4.2841,-4.284,-4.2832,-4.2941,-4.2952,-4.2988,-4.3185,-4.319,-4.3007,-4.3014,-4.3019,-4.3022,0,0,0,0,0,0,0,-4.2663,-4.2685,-4.2908,-4.2827,-4.2824,-4.2794,-4.2805,-4.2933,-4.2929,-4.2842,-4.2833,-4.2848,-4.2938,-4.2978,-4.299,-4.3192,-4.3007,-4.3017,-4.3024,-4.3028,-4.3564,-4.3571,0,0,0,0,0,0,-4.2659,-4.2679,-4.2904,-4.2911,-4.2727,-4.2806,-4.2817,-4.2876,-4.2927,-4.2928,-4.2853,-4.2842,-4.2962,-4.2977,-4.2994,-4.324,-4.3019,-4.3029,-4.3036,-4.3557,-4.3566,-4.3574,0,0,0,0,0,0,-4.2653,-4.2681,-4.29,-4.2792,-4.2818,-4.2818,-4.2886,-4.2882,-4.2921,-4.2936,-4.2935,-4.2895,-4.2957,-4.2978,-4.3134,-4.3242,-4.3034,-4.3044,-4.3548,-4.3559,-4.357,-4.3734,0,0,0,0,0,0,-4.2645,-4.2679,-4.2758,-4.2795,-4.2824,-4.3038,-4.2893,-4.2889,-4.2941,-4.2926,-4.2974,-4.2975,-4.2953,-4.3118,-4.3145,-4.3254,-4.3053,-4.3538,-4.3553,-4.3566,-4.3719,-4.375,-4.3776,0,0,0,0,0,-4.2634,-4.2801,-4.2762,-4.279,-4.2922,-4.3045,-4.3061,-4.3032,-4.295,-4.3029,-4.3038,-4.2974,-4.3225,-4.3135,-4.3164,-4.3278,-4.3531,-4.3549,-4.3565,-4.3706,-4.3744,-4.3775,0,0,0,0,0,0,-4.2778,-4.2805,-4.2763,-4.2946,-4.2994,-4.3024,-4.3123,-4.3072,-4.3146,-4.3129,-4.3091,-4.3103,-4.3268,-4.3288,-4.3187,-4.3481,-4.3365,-4.3389,-4.3462,-4.3498,-4.3526,-4.3518,-4.3062,0,0,0,0,0,-4.283,-4.2927,-4.2945,-4.3105,-4.3131,-4.3123,-4.3176,-4.3148,-4.3197,-4.3217,-4.3237,-4.3288,-4.3378,-4.3439,-4.3523,-4.372,-4.3729,-4.3813,-4.3841,-4.3864,-4.3886,-4.3992,-4.4029,-4.363,-4.363,-4.3629,0,0,-4.2941,-4.2968,-4.3031,-4.3135,-4.3169,-4.327,-4.3141,-4.3254,-4.3329,-4.3235,-4.3383,-4.3399,-4.3453,-4.3631,-4.3711,-4.3653,-4.3998,-4.3886,-4.3905,-4.3914,-4.4013,-4.4051,-4.4085,-4.3641,-4.3639,-4.3638,0,0,-4.3195,-4.3224,-4.336,-4.3396,-4.3448,-4.3441,-4.3474,-4.3512,-4.3519,-4.3666,-4.3597,-4.3686,-4.3843,-4.3884,-4.3925,-4.4192,-4.4136,-4.4221,-4.437,-4.4473,-4.4505,-4.4533,-4.4629,-4.4663,-4.4242,-4.4242,-4.4242,0,-4.3326,-4.3475,-4.3437,-4.3555,-4.3602,-4.3519,-4.3657,-4.3694,-4.3772,-4.3808,-4.3741,-4.3935,-4.3965,-4.4151,-4.4216,-4.4252,-4.4289,-4.4216,-4.4503,-4.4531,-4.4556,-4.4647,-4.4683,-4.4252,-4.4251,-4.425,-4.4249,0,-4.3634,-4.3738,-4.3842,-4.3917,-4.3976,-4.4104,-4.4086,-4.4151,-4.4118,-4.4119,-4.427,-4.4303,-4.4392,-4.4434,-4.4404,-4.4616,-4.4579,-4.4509,-4.4392,-4.4605,-4.469,-4.4724,-4.4266,-4.4263,-4.426,-4.4257,0,0,-4.3983,-4.4034,-4.4073,-4.4106,-4.4156,-4.4237,-4.436,-4.4445,-4.4502,-4.4558,-4.4661,-4.4794,-4.4729,-4.4776,-4.475,-4.4841,-4.505,-4.4759,-4.476,-4.4813,-4.5287,-4.534,-4.5381,-4.5013,-4.5019,-4.5024,-4.5282,0,-4.4238,-4.4451,-4.4419,-4.4625,-4.4721,-4.4642,-4.4749,-4.4793,-4.4796,-4.4878,-4.4882,-4.4977,-4.4884,-4.4912,-4.4998,-4.5007,-4.5145,-4.4987,-4.511,-4.5114,-4.51,-4.5425,-4.5482,-4.5724,-4.5315,-4.5321,-4.5325,0,-4.4564,-4.463,-4.4845,-4.4879,-4.4918,-4.5015,-4.509,-4.517,-4.5217,-4.5213,-4.5265,-4.5221,-4.5345,-4.5224,-4.5395,-4.5289,-4.5336,-4.5348,-4.5356,-4.5368,-4.5234,-4.5447,-4.5801,-4.5838,-4.5377,-4.5373,-4.5369,0,-4.4798,-4.4941,-4.5087,-4.5118,-4.5161,-4.5231,-4.5253,-4.5293,-4.5346,-4.5412,-4.5446,-4.5526,-4.557,-4.5634,-4.5613,-4.5527,-4.5789,-4.5666,-4.579,-4.5791,-4.585,-4.5847,-4.6218,-4.5879,-4.5878,-4.5878,-4.5877,0,-4.5087,-4.5222,-4.5193,-4.5283,-4.5432,-4.5394,-4.5543,-4.5555,-4.5591,-4.5683,-4.5619,-4.5707,-4.5674,-4.576,-4.5745,-4.5889,-4.5909,-4.591,-4.5905,-4.5917,-4.5917,-4.5949,-4.5932,-4.5887,-4.5885,-4.5883,-4.5882,0,-4.5375,-4.536,-4.5515,-4.5543,-4.5553,-4.5661,-4.5685,-4.577,-4.5767,-4.5885,-4.591,-4.5907,-4.6004,-4.5989,-4.6099,-4.6088,-4.6268,-4.6242,-4.6252,-4.6247,-4.6371,-4.636,-4.6777,-4.683,-4.6456,-4.646,-4.6463,0,-4.556,-4.5662,-4.5699,-4.5756,-4.5782,-4.5874,-4.5926,-4.5893,-4.5951,-4.6012,-4.609,-4.6181,-4.6253,-4.6413,-4.6421,-4.6504,-4.648,-4.662,-4.6492,-4.6501,-4.6483,-4.6478,-4.6488,-4.6646,-4.6651,-4.6654,-4.6657,0,-4.5892,-4.5879,-4.5957,-4.6033,-4.6098,-4.6156,-4.6209,-4.6259,-4.623,-4.6299,-4.6397,-4.6452,-4.6562,-4.6655,-4.6732,-4.6755,-4.6703,-4.6697,-4.673,-4.6744,-4.6746,-4.6747,-4.6322,-4.6688,-4.6685,-4.6683,-4.6681,-4.668,-4.6134,-4.622,-4.626,-4.6349,-4.6385,-4.6435,-4.6516,-4.6522,-4.6603,-4.6689,-4.6665,-4.6777,-4.682,-4.6918,-4.695,-4.7037,-4.6985,-4.7034,-4.7046,-4.7059,-4.7074,-4.6731,-4.7051,-4.705,-4.7049,-4.7048,-4.7048,0,-4.6463,-4.6484,-4.6566,-4.664,-4.671,-4.6652,-4.6706,-4.6769,-4.6868,-4.6912,-4.6983,-4.7096,-4.7185,-4.7199,-4.7283,-4.7351,-4.7329,-4.7374,-4.7369,-4.7376,-4.7115,-4.7078,-4.739,-4.739,-4.739,-4.739,-4.739,-4.739,-4.6642,-4.6785,-4.6777,-4.6936,-4.6956,-4.7064,-4.71,-4.7146,-4.7181,-4.731,-4.7382,-4.739,-4.7423,-4.7508,-4.7587,-4.7589,-4.7624,-4.7679,-4.7672,-4.7428,-4.7394,-4.7362,-4.7327,-4.7686,-4.7687,-4.7925,-4.7927,-4.7929]},{"header":{"parameterUnit":"m.s-1","parameterCategory":1,"la1":30.2991,"la2":30.254,"lo1":-89.0895,"lo2":-89.0444,"dy":0.0017,"dx":0.0017,"nx":28,"ny":28,"refTime":"2024-12-12T09:00:00:Z","depth":0,"parameterNumber":3,"parameterNumberName":"V-component_of_WINDS"},"data":[0,0,0,0,0,0,0,0,0,0,0,0,0,0,0,0,0,0,0,0,0,0,0,0,0,0,0,0,0,0,0,0,0,0,0,0,0,0,0,0,0,0,0,0,0,0,0,0,0,0,0,0,0,0,0,0,0,0,-3.3564,-3.3564,0,-3.3575,-3.3575,-3.3575,-3.3527,-3.3525,-3.3524,-3.3523,-3.3534,-3.3535,-3.3537,0,0,0,0,0,0,0,0,0,0,0,0,0,-3.35,-3.3502,-3.3564,-3.3564,-3.3564,-3.3575,-3.3575,-3.3575,-3.3527,-3.3525,-3.3523,-3.3522,-3.3533,-3.3535,-3.3537,0,0,0,0,0,0,0,0,0,0,0,0,0,-3.3521,-3.3502,-3.3564,-3.3541,-3.354,-3.3575,-3.3575,-3.3575,-3.3527,-3.3525,-3.3523,-3.3521,-3.3533,-3.3535,-3.3537,-3.3595,0,0,-3.3545,-3.3546,0,0,0,0,0,0,0,0,-3.352,-3.3524,-3.3545,-3.3543,-3.3541,-3.3547,-3.3556,-3.3582,-3.3528,-3.3532,-3.3522,-3.352,-3.354,-3.3542,-3.3548,-3.3595,-3.3596,-3.3545,-3.3547,-3.3548,-3.3548,0,0,0,0,0,0,0,-3.3519,-3.3523,-3.3568,-3.3545,-3.3543,-3.353,-3.3531,-3.3561,-3.3548,-3.3531,-3.3528,-3.353,-3.3539,-3.3546,-3.3548,-3.3596,-3.3545,-3.3547,-3.3549,-3.355,-3.3687,-3.369,0,0,0,0,0,0,-3.352,-3.3522,-3.3568,-3.3568,-3.3525,-3.3533,-3.3534,-3.3547,-3.3547,-3.3545,-3.3532,-3.3528,-3.3543,-3.3546,-3.3549,-3.3614,-3.3548,-3.355,-3.3551,-3.3685,-3.3688,-3.369,0,0,0,0,0,0,-3.3519,-3.3525,-3.3567,-3.3544,-3.3549,-3.3537,-3.3552,-3.3549,-3.3556,-3.3547,-3.3545,-3.3542,-3.3541,-3.3545,-3.3583,-3.3613,-3.3551,-3.3553,-3.3683,-3.3686,-3.3689,-3.3745,0,0,0,0,0,0,-3.3518,-3.3525,-3.3547,-3.3545,-3.355,-3.3602,-3.3554,-3.355,-3.356,-3.3555,-3.3556,-3.3554,-3.354,-3.358,-3.3585,-3.3616,-3.3555,-3.368,-3.3684,-3.3688,-3.3741,-3.375,-3.3758,0,0,0,0,0,-3.3515,-3.3563,-3.3548,-3.3554,-3.3578,-3.3604,-3.3607,-3.3589,-3.3563,-3.3585,-3.3579,-3.3554,-3.3609,-3.3584,-3.359,-3.3621,-3.3678,-3.3683,-3.3688,-3.3737,-3.3748,-3.3758,0,0,0,0,0,0,-3.357,-3.3563,-3.3546,-3.3595,-3.36,-3.3596,-3.3623,-3.3603,-3.3616,-3.3611,-3.3588,-3.3589,-3.363,-3.363,-3.3601,-3.3675,-3.3639,-3.3645,-3.3674,-3.3685,-3.3694,-3.3693,-3.3557,0,0,0,0,0,-3.3587,-3.3609,-3.3602,-3.3645,-3.3649,-3.3636,-3.3647,-3.3632,-3.3637,-3.3639,-3.3636,-3.3642,-3.366,-3.3673,-3.3689,-3.3741,-3.3739,-3.3765,-3.3774,-3.3781,-3.3787,-3.3812,-3.3822,-3.3707,-3.3707,-3.3706,0,0,-3.3624,-3.3623,-3.3638,-3.3656,-3.3659,-3.3682,-3.3638,-3.3665,-3.3681,-3.3644,-3.3678,-3.3676,-3.3681,-3.3725,-3.3745,-3.3726,-3.3818,-3.3787,-3.3793,-3.3795,-3.3818,-3.3829,-3.3838,-3.371,-3.3709,-3.3709,0,0,-3.3702,-3.3704,-3.3739,-3.3742,-3.3746,-3.3736,-3.3745,-3.3743,-3.374,-3.3775,-3.3746,-3.3765,-3.3798,-3.3802,-3.3808,-3.3885,-3.3862,-3.3891,-3.3936,-3.3961,-3.397,-3.3978,-3.4004,-3.4013,-3.3897,-3.3897,-3.3897,0,-3.3747,-3.378,-3.376,-3.3787,-3.3795,-3.3762,-3.3796,-3.38,-3.381,-3.3816,-3.3795,-3.3833,-3.3834,-3.3878,-3.3896,-3.3903,-3.3911,-3.389,-3.397,-3.3978,-3.3985,-3.4009,-3.4019,-3.39,-3.39,-3.3899,-3.3899,0,-3.3834,-3.3857,-3.3885,-3.3894,-3.3905,-3.3936,-3.392,-3.3934,-3.3918,-3.391,-3.3945,-3.3945,-3.3959,-3.3969,-3.3955,-3.401,-3.3998,-3.3974,-3.3937,-3.4,-3.4022,-3.4031,-3.3905,-3.3904,-3.3903,-3.3902,0,0,-3.3948,-3.3943,-3.3953,-3.3956,-3.3957,-3.3974,-3.4003,-3.4017,-3.4028,-3.4035,-3.4058,-3.4085,-3.4062,-3.407,-3.4055,-3.4077,-3.4135,-3.405,-3.405,-3.4065,-3.4194,-3.4211,-3.4222,-3.4121,-3.4122,-3.4124,-3.4193,0,-3.4022,-3.4071,-3.4052,-3.4102,-3.4122,-3.409,-3.4114,-3.4117,-3.4111,-3.4126,-3.4119,-3.4138,-3.4107,-3.4111,-3.4131,-3.4124,-3.4161,-3.4119,-3.414,-3.4141,-3.4139,-3.4234,-3.4252,-3.4318,-3.4202,-3.4203,-3.4204,0,-3.4117,-3.4126,-3.4177,-3.4172,-3.418,-3.4203,-3.4212,-3.4228,-3.423,-3.4224,-3.4231,-3.4211,-3.4238,-3.4201,-3.4237,-3.4209,-3.4217,-3.4214,-3.4216,-3.4217,-3.4176,-3.4236,-3.4339,-3.4348,-3.4218,-3.4217,-3.4216,0,-3.4192,-3.4217,-3.4251,-3.4254,-3.425,-3.4266,-3.4265,-3.4265,-3.4273,-3.4282,-3.4287,-3.4299,-3.4306,-3.4315,-3.4299,-3.4274,-3.4337,-3.4299,-3.4331,-3.4331,-3.4345,-3.4344,-3.4449,-3.4352,-3.4352,-3.4352,-3.4352,0,-3.4276,-3.4309,-3.4284,-3.4305,-3.4339,-3.4317,-3.4352,-3.4348,-3.4347,-3.4366,-3.4339,-3.4357,-3.4334,-3.435,-3.4337,-3.4368,-3.4372,-3.4366,-3.4362,-3.4368,-3.4368,-3.4372,-3.4366,-3.4355,-3.4354,-3.4354,-3.4353,0,-3.4366,-3.4351,-3.4385,-3.4377,-3.4376,-3.4402,-3.4395,-3.4413,-3.4404,-3.4427,-3.4431,-3.4417,-3.4433,-3.4418,-3.4434,-3.4426,-3.4466,-3.4456,-3.4465,-3.4462,-3.4494,-3.4491,-3.4604,-3.4617,-3.4513,-3.4514,-3.4515,0,-3.4421,-3.4444,-3.4439,-3.4448,-3.4449,-3.4465,-3.4473,-3.4452,-3.4462,-3.4464,-3.4482,-3.4496,-3.4506,-3.4534,-3.4525,-3.4537,-3.4526,-3.4565,-3.4528,-3.4532,-3.4525,-3.4523,-3.4524,-3.4572,-3.4574,-3.4575,-3.4576,0,-3.4519,-3.4509,-3.4521,-3.4531,-3.4541,-3.4547,-3.4552,-3.4561,-3.4539,-3.4551,-3.4567,-3.4575,-3.459,-3.4604,-3.4613,-3.4611,-3.459,-3.4587,-3.4595,-3.46,-3.4604,-3.4601,-3.4484,-3.4585,-3.4584,-3.4583,-3.4583,-3.4582,-3.4591,-3.461,-3.4608,-3.4622,-3.4622,-3.4626,-3.4642,-3.4634,-3.4647,-3.4657,-3.4644,-3.4663,-3.4663,-3.4672,-3.4673,-3.4687,-3.4671,-3.4683,-3.4685,-3.4688,-3.4692,-3.4602,-3.4689,-3.4689,-3.4689,-3.4688,-3.4688,0,-3.4686,-3.4682,-3.4695,-3.4701,-3.4712,-3.469,-3.4693,-3.4703,-3.472,-3.4721,-3.4731,-3.4748,-3.4761,-3.4753,-3.4763,-3.4776,-3.4766,-3.478,-3.4778,-3.4778,-3.4707,-3.4698,-3.4787,-3.4787,-3.4787,-3.4787,-3.4787,-3.4787,-3.4736,-3.4766,-3.4756,-3.4785,-3.4781,-3.4799,-3.4802,-3.4805,-3.4806,-3.4826,-3.4836,-3.483,-3.4827,-3.4837,-3.4847,-3.4844,-3.4849,-3.4865,-3.4859,-3.4793,-3.4783,-3.4774,-3.4765,-3.4867,-3.4867,-3.4928,-3.4928,-3.4929]}]]